Lapse_Rate
7.6 7.5 7.3 7.3 7.2 6.9 6.6 6.4 6.2 6.1 6.1 6.2 6.3 6.4 6.3 6.3 6.1 6.2 6.3 6.7 6.5 6.3 6.5 6.9 6.9 6.7 6.7 6.4 6.5 6.6 6.6 6.5 6.6 6.6 6.3 6.1 6.0 6.0 5.7 5.8 6.1 6.2 6.4 5.9 5.9 5.8 5.6 4.8 5.1
7.6 7.5 7.4 7.2 7.1 6.9 6.5 6.3 6.2 6.1 6.3 6.2 6.4 6.5 6.6 6.5 6.4 6.5 6.7 6.8 6.8 6.7 6.7 6.9 6.8 6.8 6.5 6.4 6.6 6.6 6.6 6.7 6.7 6.8 6.7 6.3 6.2 6.2 6.2 5.9 6.4 6.0 6.5 6.2 5.7 5.7 5.7 4.8 5.0
7.5 7.5 7.3 7.1 7.1 7.0 6.8 6.6 6.3 6.5 6.5 6.5 6.4 6.6 6.5 6.5 6.7 6.8 6.8 6.9 7.0 7.0 7.1 7.0 7.0 6.8 6.6 6.5 6.6 6.5 6.5 6.6 6.7 6.7 7.0 6.9 6.5 6.4 6.5 6.2 6.2 6.4 6.3 6.3 6.1 5.6 6.0 5.2 4.9
7.5 7.4 7.3 7.3 7.2 7.1 7.0 6.9 6.8 6.6 6.4 6.6 6.7 6.7 6.6 6.6 6.7 6.8 6.9 6.8 7.0 7.0 7.0 7.1 7.0 6.7 6.6 6.5 6.5 6.6 6.5 6.5 6.7 6.8 6.7 7.0 6.8 6.9 6.6 6.3 6.3 6.4 6.3 6.3 6.0 5.7 5.9 5.3 5.0
7.4 7.5 7.6 7.5 7.3 7.1 6.9 6.9 6.9 6.7 6.8 6.6 6.7 6.6 6.5 6.4 6.6 6.7 6.7 6.9 7.0 7.0 7.0 7.1 7.1 6.7 6.6 6.6 6.6 6.5 6.5 6.4 6.6 6.6 6.7 6.9 7.2 7.3 6.9 6.7 6.4 6.4 6.4 6.2 6.1 5.7 5.8 5.5 5.0
7.4 7.6 7.6 7.5 7.3 7.2 7.1 6.9 6.8 6.8 6.5 6.5 6.5 6.7 6.4 6.3 6.4 6.5 6.7 6.8 6.9 7.0 6.9 7.0 7.1 6.8 6.7 6.6 6.7 6.6 6.5 6.4 6.5 6.6 6.6 6.7 7.1 7.5 7.4 7.0 6.7 6.4 6.5 6.2 6.0 5.6 5.6 5.7 5.0
7.5 7.5 7.7 7.6 7.4 7.2 7.1 7.0 6.9 6.6 6.6 6.6 6.6 6.6 6.4 6.3 6.3 6.3 6.5 6.6 6.8 6.9 6.9 7.0 6.9 6.8 6.8 6.7 6.8 6.6 6.5 6.4 6.4 6.5 6.5 6.6 6.7 7.5 7.6 7.2 7.1 6.8 6.1 6.1 5.9 5.8 5.6 5.7 5.3
7.4 7.4 7.6 7.5 7.4 7.2 7.1 6.9 6.7 6.7 6.6 6.5 6.5 6.3 6.2 6.1 6.1 6.2 6.2 6.3 6.3 6.6 6.6 6.8 6.9 6.7 6.7 6.6 6.8 6.7 6.5 6.5 6.5 6.5 6.2 6.2 6.4 7.2 7.9 7.8 7.3 7.0 6.6 6.3 6.0 5.9 5.9 5.8 5.3
7.3 7.3 7.5 7.4 7.4 7.2 7.1 6.9 6.7 6.7 6.6 6.5 6.5 6.2 6.0 6.0 6.0 5.9 6.0 6.2 6.4 6.4 6.4 6.5 6.7 6.8 6.8 6.7 6.7 6.8 6.7 6.5 6.5 6.2 6.1 5.9 6.0 6.9 7.3 7.3 7.6 7.1 6.9 6.7 5.9 5.9 5.4 5.2 5.4
7.2 7.3 7.4 7.3 7.2 7.0 6.8 6.8 6.6 6.6 6.6 6.6 6.5 6.1 6.0 5.9 5.9 6.0 5.9 6.0 6.2 6.3 6.4 6.4 6.5 6.6 6.7 6.5 6.7 6.7 6.6 6.5 6.3 6.2 6.1 5.9 5.8 6.3 6.7 6.8 6.9 6.8 6.8 6.8 6.2 5.9 5.3 5.1 5.3
7.2 7.2 7.2 7.2 7.0 6.9 6.8 6.7 6.7 6.7 6.6 6.5 6.4 6.1 6.0 6.0 5.8 5.6 5.4 5.6 5.9 6.1 6.4 6.5 6.5 6.4 6.4 6.5 6.5 6.4 6.4 6.4 6.3 6.3 6.2 6.0 5.8 6.1 6.3 6.7 6.6 6.3 5.9 6.2 6.0 5.5 5.6 5.9 5.3
7.0 7.1 7.1 6.9 6.9 6.8 6.8 6.8 6.7 6.7 6.8 6.5 6.3 6.0 5.9 5.8 5.6 5.4 5.3 5.4 5.6 5.9 6.2 6.3 6.4 6.3 6.2 6.1 6.2 6.2 6.2 6.2 6.4 6.5 6.4 6.0 5.7 6.2 6.5 6.7 6.6 5.5 5.2 5.4 5.7 5.6 5.7 5.9 5.5
6.9 6.9 6.9 6.8 6.8 6.7 6.7 6.8 6.6 6.6 6.7 6.4 5.9 5.9 5.8 5.5 5.5 5.4 5.3 5.3 5.5 5.7 5.9 6.1 6.2 6.2 6.4 6.2 6.2 6.2 6.3 6.3 6.5 6.6 6.6 6.2 6.0 6.1 6.5 6.7 6.5 5.6 4.8 4.8 5.5 4.9 4.7 6.1 6.0
6.8 6.8 6.7 6.7 6.7 6.7 6.5 6.7 6.6 6.3 6.3 6.1 5.7 5.7 5.6 5.5 5.5 5.4 5.2 5.5 5.6 5.8 5.9 6.0 6.0 6.1 6.3 6.2 6.0 6.0 6.1 6.1 6.2 6.4 6.5 6.2 6.2 6.2 6.4 6.7 6.6 6.1 4.9 5.0 5.1 5.4 6.1 5.4 5.6
6.7 6.7 6.6 6.7 6.6 6.7 6.5 6.7 6.4 6.0 6.2 5.7 5.5 5.6 5.6 5.5 5.2 5.4 5.0 5.3 5.1 5.2 5.6 6.1 6.1 6.0 5.7 5.8 5.9 5.8 5.8 5.9 6.1 6.2 6.4 6.2 6.0 6.3 6.4 6.5 6.8 6.4 5.7 4.9 5.3 5.0 4.9 5.0 5.6
6.6 6.7 6.6 6.5 6.6 6.5 6.3 6.8 6.1 6.1 6.2 6.0 5.6 5.6 5.5 5.3 5.0 5.2 5.2 5.3 5.0 5.1 5.3 5.6 5.6 5.7 5.5 5.4 5.5 5.6 5.6 5.6 5.8 6.1 6.2 6.4 6.1 6.2 6.4 6.3 6.7 6.7 6.2 5.2 5.1 5.1 5.2 5.0 5.2
6.5 6.4 6.4 6.3 6.3 6.2 6.1 6.7 5.7 6.2 6.7 6.3 5.9 5.7 5.5 5.4 4.9 5.1 5.2 5.4 5.0 5.2 5.5 5.3 5.3 5.5 5.5 5.3 5.4 5.4 5.3 5.2 5.2 5.6 5.9 6.1 6.3 6.1 6.4 6.2 6.5 6.7 6.3 5.4 5.0 5.8 5.5 5.4 5.2
6.1 6.0 6.1 6.0 6.0 6.1 6.1 6.5 6.1 6.3 6.7 6.3 6.3 6.1 5.7 5.2 5.0 5.1 5.2 5.5 5.1 5.2 5.5 5.5 5.1 5.2 5.4 5.4 5.3 5.5 5.4 5.1 5.1 5.3 5.6 6.0 6.2 6.2 6.3 6.2 6.2 6.6 6.4 5.9 5.2 5.6 5.4 5.6 5.9
5.8 5.6 5.7 5.8 5.8 6.1 6.1 6.2 6.0 6.2 6.4 6.4 6.2 6.0 5.6 5.2 5.1 5.2 5.3 5.3 5.2 5.0 5.4 5.1 5.2 5.2 5.3 5.4 5.5 5.5 5.5 5.3 5.2 5.2 5.4 5.8 6.0 6.0 6.2 6.0 6.3 6.5 6.3 6.1 5.5 5.2 5.9 5.0 5.8
5.6 5.6 5.6 5.5 5.8 5.8 6.3 6.3 6.0 6.1 6.4 6.5 6.2 6.0 5.5 5.3 5.2 5.2 5.1 4.9 5.0 4.9 5.0 5.0 5.2 5.4 5.3 5.1 5.3 5.3 5.1 5.2 5.3 5.2 5.3 5.5 5.9 6.0 5.9 6.0 6.2 6.2 6.4 6.2 5.8 5.1 5.3 5.2 5.9
5.3 5.3 5.2 5.2 5.9 5.9 6.1 6.3 6.0 6.1 6.2 6.2 6.0 5.8 5.6 5.2 5.0 4.9 4.6 4.5 4.5 4.6 4.7 5.0 5.3 5.5 5.1 4.9 4.8 4.8 4.7 4.8 4.9 5.1 5.2 5.3 5.5 5.7 5.8 5.8 5.9 6.2 6.4 6.0 5.9 5.6 5.4 6.2 5.5
5.3 4.9 5.1 5.2 5.1 5.3 5.6 5.8 6.2 6.0 6.0 5.7 5.6 5.6 5.0 4.7 4.6 4.3 4.0 4.0 4.5 4.5 4.5 4.8 5.2 5.2 5.0 4.9 4.8 4.6 4.7 4.7 4.7 4.8 5.2 5.2 5.2 5.5 5.8 5.6 5.7 6.1 6.2 6.3 5.8 5.7 5.6 5.4 5.9
4.7 4.8 5.0 4.8 4.6 4.7 5.0 5.2 6.1 5.8 5.6 5.3 5.1 4.9 4.5 4.3 4.3 3.9 3.7 4.1 4.2 4.1 4.6 4.9 5.0 4.9 4.9 4.8 4.6 4.6 4.5 4.6 4.7 4.9 5.6 5.8 5.6 5.3 5.5 5.6 5.6 5.6 6.2 6.4 6.1 5.8 5.7 5.6 5.2
4.5 4.6 4.5 4.2 4.1 3.4 4.8 5.1 5.5 5.4 5.2 5.0 4.8 4.7 4.4 4.3 3.9 3.8 3.8 4.1 4.3 4.6 4.8 4.9 4.9 4.9 4.7 4.7 4.7 4.9 4.9 4.9 5.3 5.2 5.6 5.7 5.7 6.2 5.7 5.6 5.4 5.5 5.8 6.1 6.4 6.0 5.8 5.8 5.4
4.3 4.3 4.1 2.8 2.4 2.6 4.7 4.5 5.6 5.2 4.7 5.1 5.0 4.7 4.6 4.4 4.3 4.4 4.5 4.5 4.4 4.6 5.0 5.0 5.1 5.2 5.2 5.1 5.1 5.1 5.2 5.4 5.4 5.6 5.7 5.8 5.9 6.2 6.2 6.1 5.5 5.3 5.3 6.0 6.2 6.3 6.0 5.9 5.7
4.1 4.0 4.0 2.1 1.8 2.1 4.8 4.4 5.3 5.1 4.8 5.0 4.6 4.4 4.5 4.4 4.4 4.6 4.6 4.6 4.7 5.1 5.1 5.3 5.4 5.4 5.4 5.2 5.3 5.3 5.6 5.5 5.6 5.9 5.6 5.6 5.7 6.0 6.1 6.2 6.1 5.4 5.3 5.6 5.8 6.4 6.2 5.9 5.6
4.0 4.0 3.7 3.5 2.9 1.9 3.8 5.0 5.4 5.0 5.0 5.1 4.7 4.6 4.8 4.8 5.0 5.0 5.2 4.9 5.2 5.2 5.2 5.3 5.3 5.4 5.4 5.3 5.4 5.5 5.8 5.8 6.0 5.7 5.4 5.3 5.5 5.7 5.7 6.0 6.1 5.7 5.5 5.5 5.7 6.0 6.4 6.1 5.8
3.6 3.5 3.8 3.8 2.1 1.8 3.2 4.3 6.2 5.5 5.4 5.0 4.7 4.8 5.0 5.1 5.2 5.3 5.2 5.2 5.3 5.1 5.2 5.3 5.3 5.6 5.4 5.6 5.6 5.6 5.9 5.9 6.1 5.6 5.1 5.0 5.2 5.6 5.5 5.7 5.9 6.0 5.4 5.6 5.6 5.7 6.0 6.4 6.1
3.9 3.6 3.8 3.9 4.1 1.1 0.8 3.8 5.8 5.7 5.2 4.9 4.9 5.1 5.1 5.1 5.1 5.1 5.2 5.2 5.1 5.2 5.3 5.3 5.4 5.5 5.5 5.7 5.6 5.7 6.0 5.8 5.7 5.2 4.9 5.1 5.2 5.5 5.7 5.6 5.8 5.9 5.6 5.4 5.6 5.6 5.7 6.3 6.4
4.6 4.7 4.2 4.0 3.4 3.2 2.6 2.7 5.3 5.1 5.3 5.6 5.2 5.1 5.1 5.2 5.1 5.2 5.2 5.1 5.2 5.3 5.2 5.2 5.4 5.4 5.5 5.7 5.7 6.0 6.0 5.9 5.5 5.1 5.0 5.3 5.4 5.7 5.8 5.6 5.6 5.7 5.8 5.4 5.3 5.3 5.3 5.6 6.2
Wind_Speed
10 14 0 4 5 6 2 1 1 1 0 1 0 2 3 4 2 2 5 4 10 8 10 12 14 15 17 20 20 22 23 23 23 24 24 25 23 24 23 24 26 26 28 26 29 13 7 11 13
9 3 4 3 5 4 3 2 4 3 3 1 2 2 2 2 3 5 4 5 12 9 10 9 11 13 15 18 19 20 22 23 23 23 24 25 25 22 24 23 24 25 27 28 30 17 11 12 14
5 1 4 4 4 4 5 3 5 3 2 2 2 4 3 4 3 6 4 11 12 9 7 6 9 11 14 17 18 20 21 22 24 24 24 24 24 24 22 23 23 25 25 28 29 30 11 12 13
3 4 5 5 3 1 5 4 3 5 1 3 4 4 3 1 6 8 8 13 10 7 7 6 8 12 13 15 17 19 20 21 24 25 26 26 24 24 24 24 24 25 25 26 28 31 20 10 15
3 3 5 4 2 3 2 3 3 5 3 3 2 3 4 2 5 7 7 10 9 6 6 5 8 11 11 13 16 17 19 21 23 25 26 28 27 25 24 23 23 25 25 25 27 29 27 11 13
4 3 5 3 3 2 2 1 2 1 1 2 3 4 4 4 6 6 6 7 10 9 6 6 7 9 10 11 13 15 17 20 21 23 24 25 28 28 26 24 23 25 26 26 26 28 29 24 15
6 4 4 4 5 2 5 3 3 3 1 2 5 3 1 5 7 6 7 9 10 10 8 6 5 6 9 9 12 13 15 17 18 22 22 24 26 27 28 26 25 23 25 25 26 27 28 28 21
4 4 4 3 5 3 4 3 5 3 2 2 4 4 4 6 9 6 5 6 5 6 8 7 5 4 7 6 10 12 15 17 17 20 22 23 23 25 25 26 26 26 25 26 25 26 26 30 29
2 5 2 5 6 3 3 3 0 1 3 2 4 4 2 8 8 5 3 2 1 2 4 6 5 4 3 3 8 9 12 14 16 16 18 19 19 21 18 23 26 27 25 26 23 26 27 29 24
5 4 3 2 2 3 3 2 2 1 2 4 2 3 5 7 5 6 5 5 4 5 6 7 6 4 2 1 6 8 10 12 14 16 19 18 17 18 20 19 25 24 24 21 23 24 24 24 20
4 3 3 2 2 2 3 1 3 2 4 7 7 7 7 5 6 6 5 6 7 5 4 7 9 7 4 2 2 5 8 10 13 14 18 18 18 19 16 16 16 18 20 14 16 17 14 19 18
6 5 3 3 2 1 1 3 4 6 5 4 7 6 6 7 6 7 7 8 5 5 6 7 11 9 8 5 4 4 5 8 10 13 16 16 14 14 14 13 15 15 14 15 14 14 19 18 19
4 2 4 2 2 2 1 4 5 8 8 5 5 6 7 6 5 5 7 6 6 7 7 8 10 10 10 8 7 6 6 7 8 9 14 16 13 10 13 12 13 13 13 12 11 11 13 12 16
2 4 3 1 1 2 3 2 3 4 3 10 7 7 6 6 6 4 4 6 7 7 8 7 7 12 11 9 9 9 8 9 7 9 13 15 14 12 10 9 10 10 13 13 11 10 7 8 15
5 2 1 3 3 2 2 0 6 5 0 8 9 7 5 7 6 8 6 6 7 6 7 8 8 11 10 9 11 11 10 8 7 10 13 13 11 14 12 8 7 10 12 15 13 10 8 8 10
3 4 5 2 8 4 4 8 4 4 6 8 8 6 5 6 6 6 7 7 6 6 7 6 5 6 9 9 11 11 10 9 9 10 10 9 14 16 13 6 6 13 10 10 8 6 7 6 9
7 1 4 7 5 4 5 9 5 4 6 7 7 7 6 7 5 7 7 7 6 7 6 7 6 7 7 8 10 11 10 9 10 8 7 11 15 17 14 7 9 13 8 5 5 7 6 7 7
4 4 5 5 4 3 6 17 13 9 9 9 9 8 7 7 9 7 7 6 6 5 6 6 5 7 6 6 6 5 5 9 10 8 9 11 14 16 14 10 8 8 4 3 4 6 7 7 7
0 2 4 5 2 7 2 10 18 10 4 8 9 8 8 8 5 6 6 6 5 5 6 7 5 7 4 3 3 3 4 3 3 7 10 9 11 13 12 9 7 6 4 4 6 6 8 7 5
1 3 4 7 4 3 5 15 5 6 2 6 9 8 9 4 4 6 6 6 6 6 7 7 7 7 5 2 3 3 3 3 4 6 8 8 9 12 10 8 4 5 4 5 4 4 5 4 3
0 1 3 5 9 1 8 6 5 1 2 3 5 6 6 9 8 7 7 7 7 8 9 7 8 7 6 6 2 2 2 3 2 3 3 5 8 11 11 11 8 5 3 3 4 4 5 4 4
4 2 1 5 5 2 5 3 2 4 4 5 3 3 6 6 4 4 5 6 7 9 8 8 7 7 6 4 4 6 4 4 4 3 3 4 10 11 12 11 11 6 4 4 4 4 3 3 6
4 2 2 1 3 4 5 4 7 4 6 3 1 1 2 1 3 6 7 6 8 8 7 7 7 7 5 4 5 4 5 4 4 4 7 6 5 10 12 12 9 6 4 5 5 4 4 3 3
4 1 2 3 3 3 4 3 5 1 3 3 3 6 7 7 4 5 6 7 7 8 7 7 7 8 5 4 5 6 7 6 5 5 6 6 4 4 8 10 8 8 5 6 5 6 5 4 4
6 5 4 5 4 4 3 3 8 4 2 5 7 8 7 5 7 7 8 8 8 9 10 8 7 8 6 5 6 6 7 7 7 7 6 7 7 4 5 5 5 4 6 5 5 5 5 4 4
3 4 4 4 2 5 1 5 4 2 6 8 8 6 2 5 6 8 9 7 8 8 9 9 8 7 7 6 7 6 6 4 4 6 6 6 6 8 5 6 7 7 8 6 5 4 4 4 4
1 2 2 5 0 3 3 7 7 7 5 7 7 2 5 7 8 8 8 7 8 8 10 10 7 7 7 6 6 6 6 6 6 7 6 6 7 8 8 6 7 7 6 5 5 4 5 4 4
3 1 3 3 2 5 5 6 5 7 9 6 5 7 8 8 7 7 7 7 6 8 9 8 6 7 5 6 5 5 6 6 6 6 8 8 8 9 11 9 8 7 6 6 5 5 5 6 5
2 2 3 2 3 4 3 6 6 8 8 6 3 8 9 8 8 7 7 7 8 7 8 9 6 6 6 6 6 6 7 7 6 7 8 9 8 9 11 10 9 9 7 6 6 7 7 6 6
3 5 5 4 4 2 3 7 1 4 7 4 6 9 9 5 9 9 10 8 8 7 9 10 6 5 5 5 6 7 8 7 6 7 9 8 9 9 10 11 10 10 9 7 8 9 9 8 8
Wind_Direction
325 318 88 38 60 66 95 144 90 130 120 242 237 55 99 66 62 192 236 193 113 86 50 29 14 14 16 16 16 12 11 8 7 7 7 6 1 1 1 0 357 1 1 354 347 301 223 211 176
331 335 43 76 83 77 258 208 177 194 186 322 71 85 61 93 105 144 144 104 121 100 61 32 19 19 22 21 21 20 15 14 11 10 8 7 6 3 0 359 353 357 0 355 351 321 220 204 184
311 60 77 88 97 154 180 193 183 190 161 108 108 57 96 140 117 158 192 129 116 111 85 47 29 27 26 24 23 22 21 20 17 14 13 10 8 6 4 359 354 350 358 355 351 351 271 210 201
50 20 35 78 103 216 183 176 149 147 6 54 130 111 66 283 159 178 142 135 116 123 85 40 38 32 26 22 21 22 20 22 19 17 15 13 9 2 4 3 359 348 353 355 351 349 335 222 210
39 64 65 80 125 146 165 183 143 172 177 176 175 164 116 12 112 140 140 135 123 134 102 55 46 37 28 25 19 18 19 20 19 15 14 13 10 4 3 2 359 355 348 352 350 345 346 289 231
43 92 66 155 186 150 193 185 106 95 59 122 94 114 204 160 152 173 126 120 134 133 118 89 51 39 30 24 18 16 19 19 18 14 12 10 8 5 3 2 360 357 352 347 349 341 343 338 251
107 80 150 130 172 184 205 173 166 173 180 219 158 156 200 227 206 166 142 139 138 140 139 122 89 49 30 24 13 13 15 14 14 11 8 7 6 4 2 0 357 358 355 345 346 338 336 334 320
96 90 105 174 182 219 183 143 155 168 204 126 142 197 227 214 177 162 150 148 153 157 162 158 135 78 33 22 3 7 6 5 6 5 3 2 1 2 358 355 353 357 354 353 339 336 334 332 323
92 64 141 172 155 168 189 160 320 47 123 205 206 170 229 131 140 140 157 197 214 211 198 178 168 130 54 5 4 3 4 359 354 353 357 354 354 354 353 352 354 357 355 352 339 336 337 335 319
64 90 172 358 41 159 164 173 178 164 162 239 218 38 89 127 150 172 193 219 231 225 209 198 199 176 139 352 351 351 352 346 343 343 347 350 348 350 352 351 350 356 353 350 345 333 340 335 322
17 110 150 23 96 42 135 224 328 165 242 223 199 174 162 166 183 203 221 215 224 223 192 193 203 197 187 203 310 327 327 331 336 337 340 342 339 341 345 347 348 354 346 341 348 337 329 324 321
86 44 86 167 25 54 178 321 309 203 229 217 162 152 168 182 207 224 237 239 237 220 208 210 209 200 208 204 225 260 297 313 323 328 331 333 331 333 336 340 346 345 339 328 336 341 338 317 314
73 133 60 77 66 306 348 260 245 251 238 167 150 154 166 187 229 234 233 249 243 246 233 222 209 214 217 211 223 239 256 274 291 307 322 328 327 324 328 329 335 333 330 331 335 316 303 325 309
81 84 101 94 337 347 304 264 20 268 205 226 178 189 192 203 227 265 264 254 236 235 233 225 222 223 216 216 220 232 246 259 282 300 314 322 324 321 318 319 317 324 323 323 314 309 315 308 308
135 72 48 13 4 355 326 244 225 247 94 184 185 205 209 230 241 233 234 247 235 241 239 223 221 230 225 226 231 233 244 253 271 291 313 320 324 323 321 312 307 311 318 319 322 329 312 338 302
37 56 9 28 359 11 33 275 248 158 150 176 193 216 228 252 237 242 235 235 244 243 238 251 237 219 228 233 242 239 250 249 265 286 305 310 321 324 319 308 303 311 315 314 313 321 335 332 304
12 350 349 323 29 323 33 277 262 153 187 199 211 223 232 257 264 247 238 227 234 230 237 249 250 246 240 246 247 256 261 263 274 284 288 301 315 313 303 291 296 307 309 307 311 327 327 295 295
320 343 322 260 349 2 263 268 286 269 206 218 222 224 230 239 241 234 229 222 226 233 239 246 257 254 251 256 266 266 266 265 262 255 265 296 305 312 302 292 283 304 308 305 310 311 303 299 285
105 252 263 266 46 346 235 282 295 309 215 205 221 220 231 236 259 240 235 232 232 249 253 244 248 257 237 248 265 286 250 254 250 257 272 282 296 310 300 288 280 286 281 290 310 318 313 316 341
239 289 289 283 344 355 329 307 295 326 309 196 201 225 233 233 220 230 247 261 259 258 253 254 250 262 242 202 230 223 256 268 250 255 259 269 288 303 296 288 275 257 250 285 294 308 321 288 1
355 193 318 255 321 245 321 316 6 286 55 112 183 206 204 214 211 228 253 258 271 268 266 263 259 264 261 229 244 274 302 298 282 258 250 246 278 286 289 284 279 261 246 255 275 292 295 314 321
310 134 279 290 20 285 17 273 307 327 63 64 66 128 176 195 203 238 248 276 263 264 263 259 264 262 262 247 224 222 228 253 255 267 265 261 268 278 284 281 281 261 244 239 248 260 267 306 302
262 340 261 95 74 37 336 68 267 330 44 19 76 225 230 323 306 298 298 282 302 301 288 278 266 258 255 248 231 235 250 251 271 284 290 290 264 275 277 275 272 269 253 257 239 248 250 238 258
327 22 86 57 110 27 260 98 286 206 140 104 58 53 49 44 7 318 324 318 303 307 299 275 263 267 264 254 247 228 246 273 287 284 284 290 272 259 269 274 271 272 259 242 242 235 236 242 245
31 45 339 357 8 223 192 22 243 261 341 143 104 64 41 350 330 321 317 312 312 313 306 288 260 268 267 252 261 253 251 256 265 278 279 288 295 275 253 263 265 263 263 258 248 237 237 242 243
20 128 142 252 272 281 3 239 243 188 111 90 83 96 64 323 303 288 287 293 289 295 293 281 265 265 265 259 264 270 271 253 258 265 269 272 277 286 241 250 256 261 256 246 249 236 233 231 241
306 53 184 104 45 42 243 286 314 152 141 119 124 154 284 286 275 275 292 293 295 297 298 292 278 271 274 278 279 284 283 271 263 265 263 263 273 280 271 242 247 255 257 241 242 239 237 229 238
116 174 37 7 334 291 283 278 234 195 197 202 25 348 309 278 293 312 312 300 294 290 292 291 277 267 280 281 280 282 275 263 259 262 267 260 267 271 279 277 259 248 245 247 237 249 229 225 223
29 5 32 132 137 205 290 260 219 209 175 191 247 294 280 282 306 309 298 289 281 282 295 305 295 295 293 283 281 280 276 265 260 261 267 270 267 270 275 276 268 256 244 233 242 242 237 234 238
160 193 154 141 255 189 173 266 253 200 184 185 263 276 274 299 326 312 297 289 290 298 312 309 290 295 298 292 280 281 282 279 264 262 268 266 267 269 268 272 268 259 247 235 231 236 245 234 229